User: anonymous   Login
Location: Unspecified
(0.0000°N, 0.0000°E)
Time: 09:10:37
(UTC+00:00)
Language:

PEASSS - Orbit

View from above orbital plane
View from above orbital plane
View from above satellite
View from above satellite

Ground track
Ground track

The orbit data is extracted from the following two-line orbital elements,

1 42015U 17008BV  23088.73262073  .00052598  00000-0  11270-2 0  9991
2 42015  97.2189 152.3273 0002511 299.8286  60.2713 15.44589731340560
Epoch (UTC): 29 March 2023 17:34:58
Eccentricity: 0.0002511
inclination: 97.2189°
perigee height: 431 km
apogee height: 434 km
right ascension of ascending node: 152.3273°
argument of perigee: 299.8286°
revolutions per day: 15.44589731
mean anomaly at epoch: 60.2713°
orbit number at epoch: 34056

The dashed part of the orbit path shows where the satellite is in the earth's shadow,  

DLR